This is the latest recevied weather packets stored in our database for station/object F4GQK-13. If no packets are shown the sender has not sent any weather packets the latest 1 day(s).
| Time | Temp. | Humidity | Pressure | Rain* | Wind** | Luminosity | Snow |
|---|---|---|---|---|---|---|---|
| 1777992004 | 13.89° C | 96% | 1007.7 hPa | 0.25 mm | 1.34 m/s, 75° | 52 W/m² | - |
| 1777991705 | 13.89° C | 96% | 1007.5 hPa | 0.51 mm | 0.89 m/s, 32° | 44 W/m² | - |
| 1777991405 | 14.44° C | 96% | 1007.6 hPa | 0.51 mm | 1.79 m/s, 350° | 73 W/m² | - |
| 1777991105 | 14.44° C | 96% | 1007.8 hPa | 0.51 mm | 1.34 m/s, 20° | 140 W/m² | - |
| 1777990805 | 14.44° C | 96% | 1007.8 hPa | 0.76 mm | 0.89 m/s, 353° | 161 W/m² | - |
| 1777990505 | 14.44° C | 96% | 1007.7 hPa | 0.51 mm | 1.79 m/s, 64° | 125 W/m² | - |
| 1777990205 | 14.44° C | 96% | 1007.7 hPa | 0.51 mm | 2.24 m/s, 29° | 119 W/m² | - |
| 1777989904 | 14.44° C | 97% | 1007.8 hPa | 0.76 mm | 0.89 m/s, 38° | 123 W/m² | - |
| 1777989605 | 14.44° C | 97% | 1007.9 hPa | 0.76 mm | 0.89 m/s, 43° | 128 W/m² | - |
| 1777989305 | 14.44° C | 97% | 1007.9 hPa | 0.76 mm | 0.89 m/s, 76° | 173 W/m² | - |
| 1777989005 | 14.44° C | 97% | 1007.8 hPa | 1.02 mm | 2.24 m/s, 54° | 166 W/m² | - |
| 1777988704 | 14.44° C | 97% | 1007.9 hPa | 1.02 mm | 1.34 m/s, 84° | 173 W/m² | - |
| 1777988402 | 14.44° C | 97% | 1007.9 hPa | 1.02 mm | 0.89 m/s, 35° | 220 W/m² | - |
| 1777988104 | 14.44° C | 97% | 1007.8 hPa | 1.02 mm | 0.89 m/s, 347° | 207 W/m² | - |
| 1777987804 | 14.44° C | 97% | 1007.9 hPa | 1.27 mm | 1.34 m/s, 58° | 194 W/m² | - |
| 1777987505 | 14.44° C | 97% | 1007.8 hPa | 1.27 mm | 1.34 m/s, 354° | 194 W/m² | - |
| 1777987204 | 14.44° C | 97% | 1007.9 hPa | 1.27 mm | 0.89 m/s, 53° | 147 W/m² | - |
| 1777986904 | 14.44° C | 97% | 1007.8 hPa | 1.27 mm | 0.89 m/s, 51° | 114 W/m² | - |
| 1777986605 | 13.89° C | 97% | 1008 hPa | 1.27 mm | 1.34 m/s, 52° | 127 W/m² | - |
| 1777986305 | 13.89° C | 97% | 1007.8 hPa | 1.27 mm | 0.89 m/s, 78° | 129 W/m² | - |
| 1777986005 | 13.89° C | 97% | 1007.9 hPa | 1.27 mm | 1.79 m/s, 63° | 124 W/m² | - |
| 1777985705 | 13.89° C | 97% | 1007.8 hPa | 1.27 mm | 1.34 m/s, 91° | 118 W/m² | - |
| 1777985405 | 13.89° C | 97% | 1007.9 hPa | 1.27 mm | 0.89 m/s, 99° | 122 W/m² | - |
| 1777985106 | 13.89° C | 97% | 1007.9 hPa | 1.27 mm | 0.89 m/s, 69° | 125 W/m² | - |
| 1777984805 | 13.89° C | 97% | 1008 hPa | 1.27 mm | 0.89 m/s, 37° | 124 W/m² | - |
* Rain latest hour (hover to see other rain measurements)
** Current wind speed in m/s (hover to see current wind gust speed)